Wind_Speed
24 24 24 24 24 24 25 25 24 24 25 25 24 25 26 26 26 27 28 29 29 29 30 30 30 31 31 31 31 31 31 32 33 33 33 34 33 33
25 24 23 24 25 25 25 25 25 25 24 24 24 24 25 26 27 27 28 29 29 29 29 29 30 31 31 32 32 33 32 33 33 33 33 34 34 35
24 24 24 24 25 25 25 25 25 25 24 24 23 24 25 26 27 27 28 28 29 29 29 29 30 30 31 32 32 33 33 33 33 34 35 35 36 37
24 24 24 25 26 26 25 25 25 24 24 23 23 23 24 24 25 26 27 27 28 28 29 29 30 30 31 32 32 32 32 32 33 34 35 36 37 39
24 24 25 25 25 25 25 24 23 22 23 23 22 23 23 24 25 25 25 26 27 28 29 29 30 31 31 31 31 31 32 32 33 35 36 37 39 40
23 24 25 25 25 25 24 24 24 23 23 23 23 23 22 23 24 25 25 26 27 28 29 29 29 30 30 31 31 31 31 32 33 35 36 37 39 40
23 23 23 23 24 23 23 23 22 23 23 23 22 23 22 22 23 23 25 25 26 26 27 27 28 29 30 31 31 31 32 33 34 35 36 37 38 40
22 22 22 22 22 21 21 21 21 21 22 23 22 22 22 22 23 23 24 25 26 26 27 26 27 28 29 30 31 32 32 33 34 35 36 37 37 37
20 20 19 19 19 18 18 19 20 20 21 22 23 23 23 23 23 24 24 25 25 26 27 27 28 28 29 30 31 32 32 33 34 34 34 34 34 34
19 18 17 17 18 18 18 19 20 20 21 21 22 22 23 23 24 24 24 24 24 26 27 28 27 28 28 29 30 31 32 33 33 33 33 32 32 32
17 17 17 17 17 18 18 19 20 20 20 21 22 23 23 23 23 24 24 24 25 26 27 27 27 27 27 28 29 30 31 31 31 30 30 31 31 31
17 17 18 18 19 18 18 19 20 21 20 21 22 23 23 22 23 24 24 25 25 25 26 26 26 26 27 28 28 29 29 29 29 29 29 29 29 29
17 18 19 19 20 20 20 20 21 21 21 21 22 22 22 22 23 23 24 24 24 24 24 25 26 26 27 27 28 28 28 28 28 28 28 28 27 27
17 17 18 19 20 20 20 20 20 21 21 21 21 21 21 21 22 23 23 24 23 23 24 24 25 25 26 26 26 26 26 26 26 26 26 26 26 26
17 17 18 18 18 19 19 20 20 21 20 21 21 21 21 21 22 22 22 23 22 22 23 24 24 24 25 25 25 25 24 24 24 24 24 25 25 25
17 17 17 16 17 18 19 20 20 19 20 20 20 20 21 21 22 22 22 22 22 22 22 23 23 23 23 24 24 23 23 23 23 22 22 23 24 24
16 15 16 16 17 18 18 18 19 19 20 20 20 20 20 20 20 21 22 21 21 21 21 21 22 22 22 23 23 22 22 22 22 22 22 22 22 22
15 15 15 15 16 16 17 18 18 18 18 19 20 20 19 19 19 20 20 20 20 21 21 22 22 22 22 22 22 22 22 22 22 21 21 21 20 20
14 14 14 14 14 15 15 16 16 16 17 17 18 19 19 19 19 19 20 20 20 20 21 22 22 23 22 22 21 21 21 21 21 20 20 20 19 19
13 13 14 14 14 13 14 15 16 16 17 18 18 18 18 18 18 19 19 20 20 20 20 20 21 22 22 22 21 21 21 20 19 19 19 19 19 18
13 14 14 14 14 14 15 16 17 16 17 17 17 17 18 17 18 18 18 19 19 20 20 21 21 20 20 20 21 21 20 19 18 18 19 18 18 18
14 14 13 13 14 15 15 16 16 17 17 17 17 17 18 17 18 18 18 18 19 19 19 20 20 19 19 19 19 19 18 18 18 18 17 17 16 16
15 14 13 13 14 14 13 14 15 16 17 17 18 18 18 18 18 18 18 18 17 17 17 17 17 17 18 18 18 17 16 16 17 17 15 14 14 14
Wind_Direction
271 270 270 270 269 269 269 270 270 269 267 264 263 263 261 260 260 259 258 257 259 260 261 263 263 263 263 263 265 267 268 268 267 265 265 265 265 263
269 267 269 270 270 269 268 268 268 267 267 263 263 262 261 260 261 261 259 258 258 261 262 263 263 263 263 263 264 266 268 269 268 267 266 265 264 263
271 267 268 270 269 268 266 266 267 266 264 262 263 264 263 263 264 263 261 259 259 261 263 264 264 264 263 263 265 267 267 267 267 268 267 266 265 263
270 269 270 269 268 267 267 267 265 264 262 261 262 265 264 263 264 263 263 261 262 264 265 265 266 266 266 265 266 267 267 268 268 269 269 267 266 265
269 270 271 268 268 268 268 266 265 264 263 262 264 266 264 265 264 263 263 263 264 265 267 268 268 268 267 267 267 268 268 269 270 271 272 270 268 267
271 270 269 268 268 269 269 265 264 262 263 262 262 263 263 263 264 264 264 265 267 268 269 269 270 269 268 268 268 269 269 270 272 275 275 274 272 270
272 270 268 267 269 268 268 266 264 262 261 261 262 262 265 265 265 265 266 268 269 269 270 272 273 272 270 269 269 271 273 274 275 277 277 278 276 273
274 271 269 269 269 267 266 263 263 263 261 264 264 266 267 268 267 268 267 267 268 269 270 273 274 274 273 272 272 272 275 275 276 277 278 279 278 274
276 272 271 269 267 266 263 260 262 264 264 264 264 266 267 269 269 269 269 271 270 270 272 273 274 275 275 274 274 274 276 278 278 278 279 278 277 275
277 273 268 268 268 267 264 262 263 266 265 265 266 266 268 268 269 269 270 272 272 271 272 273 275 276 275 275 276 278 279 282 281 279 279 278 277 275
277 272 268 270 270 268 266 263 264 266 266 267 268 268 270 270 269 270 272 274 274 276 277 276 276 276 276 278 280 281 283 283 281 279 277 276 276 276
279 273 270 270 270 270 267 265 266 266 267 267 268 269 269 268 269 270 273 276 277 278 280 279 278 278 280 282 284 285 285 284 282 280 280 279 278 278
282 276 271 269 269 268 270 269 267 267 267 267 267 269 269 269 269 271 275 277 278 279 280 281 281 281 283 285 285 286 286 285 284 283 282 280 280 280
284 280 274 272 271 271 272 270 269 269 268 269 270 271 270 270 271 274 276 277 278 279 280 282 282 284 287 288 289 288 287 285 284 285 282 281 280 280
286 282 276 273 270 270 272 270 271 271 270 271 270 270 268 269 271 274 276 278 278 281 283 284 286 286 289 292 293 292 290 286 286 285 283 283 281 281
287 280 277 274 272 271 270 270 271 271 270 270 270 269 268 270 272 274 276 276 278 281 284 286 289 290 290 292 292 291 290 288 288 286 283 283 282 281
289 285 280 277 274 272 270 269 269 270 270 269 269 270 271 273 274 275 276 277 278 281 284 285 290 293 293 293 293 291 289 288 288 286 285 285 285 283
293 289 286 281 278 274 271 271 272 271 271 272 272 272 272 275 277 278 278 279 281 284 285 286 288 292 293 294 292 291 290 290 290 288 286 287 288 287
295 293 290 287 283 280 275 272 270 270 270 273 275 275 273 275 277 279 282 284 285 286 287 287 287 289 290 292 290 290 291 292 290 290 288 288 288 288
297 298 295 292 288 284 279 274 272 271 269 270 275 275 272 274 277 279 282 287 289 289 290 290 288 289 290 292 291 290 291 291 290 290 290 290 290 290
300 300 298 294 291 286 280 276 272 271 271 272 273 272 270 272 277 279 282 287 290 291 291 292 291 290 291 291 290 290 290 290 292 293 293 291 291 292
303 302 301 300 297 291 284 278 274 273 275 276 274 271 270 272 275 278 282 286 290 291 292 293 292 291 292 293 292 292 290 290 294 296 295 293 291 291
301 302 303 300 299 297 291 283 279 277 278 276 274 272 272 273 274 277 282 286 290 294 296 295 293 293 293 292 292 290 291 292 295 297 296 295 294 294
Height
5745 5745 5746 5747 5747 5748 5749 5750 5751 5752 5754 5755 5757 5758 5760 5762 5763 5765 5766 5768 5769 5770 5772 5773 5774 5775 5777 5778 5779 5780 5781 5782 5782 5783 5784 5785 5786 5787
5737 5738 5738 5739 5740 5740 5741 5742 5743 5744 5746 5748 5749 5750 5752 5754 5755 5757 5758 5760 5761 5762 5763 5764 5765 5766 5768 5769 5770 5771 5772 5773 5773 5774 5775 5775 5776 5778
5729 5730 5731 5731 5732 5733 5733 5734 5735 5736 5738 5740 5741 5743 5744 5746 5747 5749 5750 5752 5753 5754 5755 5755 5756 5757 5758 5759 5761 5762 5762 5763 5763 5764 5764 5765 5766 5767
5721 5722 5723 5723 5724 5724 5725 5726 5726 5728 5730 5732 5734 5735 5737 5738 5740 5741 5742 5743 5745 5745 5746 5747 5748 5748 5749 5750 5751 5752 5752 5753 5753 5754 5754 5755 5755 5756
5714 5715 5715 5715 5716 5716 5717 5718 5719 5720 5722 5724 5727 5728 5729 5731 5732 5733 5734 5736 5736 5737 5738 5739 5739 5739 5740 5741 5742 5742 5743 5743 5743 5743 5743 5743 5743 5744
5707 5707 5708 5708 5709 5709 5710 5710 5712 5713 5715 5717 5719 5721 5722 5723 5725 5726 5727 5728 5729 5729 5730 5730 5731 5731 5731 5732 5733 5733 5733 5733 5733 5732 5732 5731 5731 5731
5700 5700 5701 5701 5701 5702 5703 5704 5705 5707 5709 5710 5712 5714 5715 5716 5718 5719 5719 5720 5721 5721 5721 5722 5722 5722 5722 5723 5723 5724 5723 5723 5722 5721 5720 5719 5718 5718
5693 5693 5694 5694 5695 5695 5696 5698 5699 5701 5703 5704 5706 5707 5709 5710 5711 5711 5712 5713 5713 5714 5713 5714 5713 5713 5713 5714 5714 5713 5713 5712 5711 5710 5709 5707 5706 5705
5686 5687 5687 5688 5689 5689 5691 5692 5694 5695 5697 5698 5699 5701 5702 5703 5704 5704 5705 5705 5705 5705 5705 5706 5705 5705 5705 5704 5704 5703 5702 5701 5700 5698 5697 5695 5694 5693
5681 5681 5682 5683 5683 5684 5685 5687 5688 5689 5691 5692 5693 5694 5695 5696 5696 5697 5697 5697 5697 5697 5697 5697 5697 5696 5695 5695 5694 5693 5692 5690 5689 5687 5685 5684 5683 5682
5676 5676 5677 5678 5679 5679 5680 5681 5683 5683 5684 5686 5687 5688 5688 5689 5689 5689 5690 5690 5690 5690 5689 5688 5688 5687 5686 5686 5684 5683 5681 5680 5678 5677 5675 5674 5673 5672
5671 5671 5672 5672 5673 5674 5675 5676 5677 5678 5678 5679 5680 5681 5681 5682 5682 5682 5682 5682 5682 5682 5681 5680 5679 5678 5678 5677 5675 5673 5672 5670 5668 5667 5666 5664 5663 5662
5666 5666 5666 5667 5667 5668 5669 5670 5670 5671 5672 5673 5673 5674 5674 5675 5675 5675 5675 5675 5674 5674 5673 5672 5671 5669 5668 5667 5666 5664 5662 5660 5659 5657 5656 5655 5653 5652
5661 5661 5661 5661 5662 5662 5663 5663 5664 5665 5665 5666 5667 5667 5667 5668 5668 5668 5668 5667 5666 5666 5665 5664 5662 5661 5659 5658 5656 5655 5653 5651 5649 5648 5647 5645 5644 5643
5655 5655 5655 5655 5655 5656 5656 5657 5657 5658 5659 5659 5660 5660 5661 5661 5661 5661 5660 5660 5659 5658 5657 5656 5654 5653 5651 5650 5648 5646 5644 5643 5641 5640 5638 5637 5636 5635
5649 5649 5649 5649 5649 5649 5650 5650 5651 5651 5652 5652 5653 5653 5654 5654 5654 5654 5653 5653 5652 5651 5650 5648 5647 5645 5644 5642 5640 5638 5636 5635 5634 5632 5631 5629 5628 5627
5644 5643 5643 5643 5643 5643 5644 5644 5644 5645 5645 5646 5646 5646 5647 5647 5647 5647 5646 5646 5645 5644 5643 5642 5640 5638 5636 5635 5633 5631 5629 5627 5626 5624 5623 5622 5621 5619
5639 5638 5637 5637 5637 5637 5637 5637 5637 5638 5638 5639 5639 5640 5640 5640 5640 5640 5639 5639 5638 5637 5636 5634 5632 5631 5629 5627 5626 5624 5622 5621 5619 5617 5616 5615 5614 5612
5635 5633 5632 5631 5631 5630 5631 5631 5632 5632 5632 5633 5633 5633 5633 5633 5633 5633 5633 5632 5631 5630 5628 5627 5625 5624 5622 5621 5619 5617 5615 5614 5612 5610 5609 5608 5607 5606
5630 5629 5628 5627 5626 5625 5625 5625 5626 5626 5626 5627 5627 5626 5626 5627 5627 5626 5626 5625 5624 5623 5622 5620 5618 5617 5615 5614 5612 5610 5609 5607 5606 5604 5603 5601 5601 5600
5627 5625 5623 5622 5621 5620 5620 5620 5620 5620 5620 5620 5620 5620 5620 5620 5620 5620 5619 5619 5618 5617 5615 5614 5612 5610 5608 5607 5606 5604 5603 5601 5600 5598 5597 5596 5595 5594
5622 5621 5619 5618 5617 5615 5615 5614 5614 5614 5614 5614 5614 5614 5614 5614 5614 5614 5613 5612 5611 5610 5609 5607 5605 5604 5602 5601 5600 5599 5597 5596 5594 5592 5591 5590 5589 5589
5618 5617 5615 5614 5612 5611 5610 5609 5608 5608 5608 5608 5608 5608 5608 5608 5608 5607 5607 5606 5605 5604 5603 5601 5599 5598 5596 5595 5594 5593 5591 5590 5589 5588 5587 5585 5585 5584